Theta_e
315 320 321 323 322 324 325 323 328 320 319 322 317 317 313 310 311 312 312 313 317 315 315 318 322 326 325 323 320 319 317 316 315 319 326 319 316 321 322 326 329 331 333 334 334 333 332 330 329 325 328 333 333 334 334 334 333 332 332 332 330 328 326 327 328 328 330 332 332 332 333 332 330 329 328 327 328 329 332 334 334 334 334 334 334 329 322 319 318 316 313 311 309 308 307 307 307
311 315 319 321 321 325 323 321 333 328 324 324 315 314 312 310 312 312 311 312 313 313 317 320 323 324 323 322 320 319 315 314 309 309 313 312 315 320 320 324 328 332 332 333 334 333 332 331 331 328 328 331 332 333 334 334 334 333 332 332 332 331 329 329 329 329 329 330 330 329 329 327 326 327 325 325 324 325 329 332 334 334 334 334 334 330 324 320 319 318 316 314 312 310 308 307 307
309 311 315 320 322 323 323 323 332 333 333 327 314 311 310 310 311 311 310 311 311 313 320 323 322 322 322 320 318 316 312 312 308 304 308 309 314 318 319 323 327 330 331 332 334 332 333 332 332 330 328 329 330 330 332 334 334 334 333 333 333 332 331 330 330 331 330 330 329 328 327 325 325 325 324 323 322 321 324 329 333 334 334 333 333 332 325 320 320 319 318 316 315 313 310 308 307
308 310 314 319 322 321 324 324 326 330 330 322 315 311 310 310 310 309 309 312 311 314 322 324 321 319 319 317 315 313 308 310 307 303 305 307 310 313 316 321 325 329 330 332 332 332 333 334 334 332 330 328 329 329 330 332 333 334 334 334 334 333 332 332 332 331 331 330 328 327 326 325 325 325 324 323 320 319 320 325 331 333 333 333 332 331 325 320 320 320 320 318 317 316 313 310 308
308 311 317 321 322 317 318 318 316 320 318 315 316 312 309 308 307 306 309 313 311 312 317 321 322 318 316 314 312 310 306 307 306 303 305 306 308 311 313 317 323 327 330 331 332 332 332 334 335 334 332 330 330 330 330 330 330 332 332 333 334 334 333 333 333 332 332 330 329 327 326 326 326 326 325 323 318 315 316 321 327 331 332 332 332 329 323 320 320 321 322 320 319 317 316 313 310
314 317 320 321 317 311 315 314 311 312 309 311 313 310 309 307 305 306 309 312 311 310 312 316 319 318 314 311 310 308 305 304 304 304 304 306 307 309 311 313 319 324 328 331 331 331 332 333 335 335 334 332 331 331 331 330 328 328 329 332 333 334 334 334 334 333 332 331 330 329 328 328 328 327 326 322 318 314 312 316 324 329 331 331 331 329 323 320 321 323 322 321 320 319 318 316 313
319 320 320 320 314 309 313 312 310 311 307 308 309 308 308 305 305 308 309 312 312 309 309 311 314 319 317 313 311 308 305 304 303 304 304 305 306 307 309 311 315 320 325 328 331 331 331 332 333 335 334 333 332 332 331 331 330 326 325 328 331 332 334 334 334 334 333 332 331 331 330 328 328 327 326 322 318 315 311 314 323 328 330 331 330 329 324 319 322 324 323 322 321 320 319 317 315
320 319 315 317 314 311 313 310 309 310 308 305 306 306 306 304 306 308 309 310 312 309 307 309 312 318 319 315 312 308 306 304 303 304 304 304 305 306 307 309 312 315 321 325 328 330 331 332 332 333 334 334 333 332 331 330 330 328 324 325 327 329 331 333 334 334 334 333 332 332 330 328 327 325 324 321 318 315 311 313 323 328 329 330 328 328 324 319 324 325 323 323 322 321 320 318 316
318 318 315 316 315 312 313 311 309 309 307 305 304 305 305 305 306 307 307 307 307 308 306 307 311 314 315 314 312 308 306 304 303 303 303 304 303 304 305 307 310 313 317 320 325 328 330 331 332 333 333 334 334 332 332 331 330 328 326 323 323 325 328 330 332 334 334 332 332 332 329 328 326 323 321 320 318 315 312 312 320 326 328 329 327 327 322 321 326 326 323 323 322 321 320 319 317
315 317 315 315 315 313 313 312 310 308 306 305 304 304 304 305 306 306 306 306 305 306 305 305 308 309 311 313 310 308 306 303 303 303 303 303 303 303 304 306 308 311 314 318 322 325 328 330 331 332 333 333 333 333 332 332 331 330 328 326 324 325 325 324 327 332 334 333 333 332 330 329 325 323 321 318 318 318 316 315 318 323 325 326 326 325 320 323 327 326 325 321 321 322 321 320 318
315 312 312 318 321 319 315 312 310 308 306 304 304 304 304 305 306 305 305 304 304 305 304 305 306 306 309 310 310 309 305 303 303 303 303 303 302 302 303 304 306 308 312 316 321 323 326 328 329 330 331 332 333 334 333 332 332 332 330 328 327 327 326 323 323 327 330 331 332 332 333 330 326 325 322 319 319 321 321 319 320 322 323 324 323 321 320 325 326 327 327 321 322 323 322 321 318
316 310 314 321 319 316 314 312 309 309 310 306 304 304 304 304 304 304 305 304 303 304 304 304 304 306 308 307 308 307 304 303 303 303 302 302 302 302 302 303 304 306 309 313 318 322 324 325 328 329 329 331 332 334 333 332 333 333 332 331 330 328 328 326 325 324 325 327 328 330 332 332 328 326 325 322 320 323 325 322 321 323 324 323 320 320 323 326 326 329 327 320 323 324 323 321 318
314 310 318 316 309 312 312 311 310 311 310 305 304 304 304 304 303 304 304 304 302 303 304 303 304 307 307 304 305 304 303 303 303 303 302 302 302 302 303 303 303 304 306 309 313 318 322 324 325 327 328 329 331 333 333 332 333 334 333 332 332 331 330 329 328 327 324 323 322 324 329 331 330 328 327 326 322 323 327 326 323 324 324 322 320 322 326 327 326 328 324 320 325 325 324 321 315
310 309 316 312 308 312 310 310 311 312 308 303 303 303 304 304 303 303 303 304 303 303 304 303 304 307 306 304 304 303 303 303 303 303 302 302 302 302 303 303 303 303 304 306 308 312 317 321 324 325 326 328 329 331 332 332 332 333 333 333 333 333 333 332 330 328 324 322 321 321 325 329 330 329 328 328 325 323 327 328 325 324 324 323 324 326 328 328 327 325 321 321 325 325 325 321 314
310 307 312 315 313 312 309 309 310 311 306 303 304 303 303 303 303 303 302 304 304 302 303 303 303 305 305 304 304 303 303 303 303 302 302 303 303 303 303 302 303 303 303 304 306 308 311 315 320 324 325 325 326 328 329 331 332 332 333 333 333 333 332 332 331 327 322 320 321 321 322 326 328 327 327 327 325 322 327 330 327 326 325 325 327 327 328 329 326 322 321 323 324 325 326 321 314
310 308 313 317 314 311 308 306 307 310 305 302 304 303 303 303 303 303 302 303 303 302 303 303 303 303 303 303 303 303 303 303 302 302 303 304 304 303 303 303 302 302 303 303 304 305 307 310 314 320 324 325 325 326 327 328 330 332 333 333 333 333 332 331 329 325 322 320 320 322 321 322 323 323 324 326 325 322 326 330 329 329 327 326 327 328 329 330 326 322 322 324 325 326 326 321 314
308 310 313 312 310 309 307 306 307 308 305 303 303 303 303 304 304 303 303 303 303 303 303 303 303 303 303 303 303 302 302 302 302 303 304 305 304 304 304 304 303 303 303 303 303 304 305 307 310 314 320 324 324 324 325 327 329 331 333 333 333 333 332 331 329 326 324 320 318 320 322 322 322 321 321 324 325 322 326 329 329 330 329 328 328 328 329 329 327 323 322 324 326 326 325 319 314
309 312 309 307 307 306 304 305 305 303 304 304 303 303 303 304 304 303 304 304 303 302 302 303 303 303 303 303 302 302 301 301 302 303 305 305 305 305 304 304 304 304 304 303 303 303 304 306 309 311 314 319 323 323 324 326 329 331 332 333 333 333 332 331 329 327 325 322 318 317 319 322 323 322 319 322 323 322 325 328 329 330 330 330 329 328 329 329 328 324 322 325 326 327 324 318 315
307 310 309 307 306 304 303 304 303 302 304 303 303 303 303 304 303 304 304 304 303 302 302 303 303 303 303 303 302 302 301 302 303 303 304 305 304 303 303 304 305 305 305 305 305 305 305 306 309 312 313 315 319 322 323 324 326 330 332 332 333 333 332 331 330 329 326 324 322 319 317 319 321 322 321 320 321 322 325 327 329 330 329 330 330 330 330 330 328 324 323 325 326 326 322 317 317
302 307 311 307 303 303 302 303 302 303 303 303 304 303 303 304 303 304 304 303 303 302 302 302 303 303 303 303 302 301 302 302 303 303 304 304 303 301 301 302 302 304 306 307 308 308 307 306 308 312 314 315 316 319 322 324 324 327 330 331 332 332 331 331 331 330 327 325 324 322 319 319 320 321 321 320 317 320 326 328 329 330 330 331 331 331 331 330 328 325 324 326 327 325 320 318 319
302 306 312 305 301 304 304 303 303 303 303 303 304 303 304 304 304 304 303 305 305 302 302 302 302 303 303 303 302 302 302 303 303 303 304 304 303 302 301 301 301 303 305 307 309 310 309 308 307 311 314 316 316 318 320 323 324 325 327 329 331 332 331 331 331 330 327 325 324 323 322 321 320 320 321 319 315 320 327 328 329 330 330 331 331 331 331 330 329 326 325 326 327 324 320 320 321
303 303 305 303 302 304 304 303 303 303 303 303 303 304 304 303 304 304 303 305 305 303 303 303 303 303 303 302 302 302 302 303 302 302 303 302 301 301 301 301 302 304 305 306 308 309 310 310 310 311 313 315 316 318 319 321 323 324 326 328 330 331 332 331 331 330 327 324 323 323 323 323 322 321 321 319 319 323 327 328 329 329 329 330 330 331 330 329 328 326 325 326 326 323 321 322 321
303 303 302 302 302 303 303 303 303 303 303 304 304 304 304 303 304 304 303 304 303 303 303 303 303 303 302 302 302 302 302 301 300 300 299 298 297 297 297 299 300 302 304 306 308 309 311 312 313 312 313 314 316 317 318 320 321 323 325 327 329 330 331 331 331 329 326 325 324 323 322 322 322 322 322 321 323 326 327 327 328 328 329 330 330 331 329 328 328 326 325 326 326 324 322 323 322
304 304 302 302 303 303 304 303 303 304 303 303 303 303 303 303 304 304 304 304 303 303 303 303 303 302 302 302 302 302 301 300 298 298 297 295 295 295 295 297 298 300 303 305 307 308 310 312 313 312 312 313 315 317 318 319 321 322 324 326 328 328 329 330 330 327 325 327 327 323 320 321 322 324 324 323 325 326 326 327 327 328 329 330 331 331 329 328 328 326 325 327 326 323 323 323 322
304 304 303 303 303 303 304 303 304 304 304 303 303 303 303 303 303 303 304 304 303 303 303 303 303 302 302 302 302 301 301 300 297 296 295 294 296 295 295 297 298 299 301 304 306 307 309 311 312 312 313 312 314 317 318 319 320 322 323 325 327 327 329 330 329 326 326 329 329 321 318 320 322 324 325 325 326 326 326 327 327 328 329 330 331 330 330 329 328 326 326 327 326 323 323 323 323
303 303 303 303 303 303 303 304 303 303 303 303 303 302 302 303 303 304 304 304 303 303 303 303 303 303 302 302 301 301 300 298 295 294 293 294 296 296 296 297 298 298 299 302 305 307 308 310 311 311 312 313 314 316 317 318 319 321 322 324 326 326 327 329 327 326 328 330 327 320 316 320 323 325 326 326 327 327 328 328 328 329 330 331 331 330 329 329 328 326 327 328 325 323 323 323 323
303 303 303 303 303 304 304 304 304 304 303 303 302 302 302 303 304 305 304 303 303 303 303 303 303 303 302 301 301 300 299 297 294 293 293 294 295 295 295 296 297 297 297 300 304 306 307 308 310 310 311 312 314 314 315 316 317 319 321 322 324 325 325 328 328 327 329 330 326 319 316 319 323 326 327 328 329 329 328 329 329 330 330 330 330 330 330 329 329 327 327 327 324 323 323 323 324
304 304 305 303 303 303 303 303 303 303 303 302 302 301 303 304 304 304 303 303 303 303 303 303 303 302 301 301 300 299 298 296 294 294 294 294 294 294 294 295 295 296 296 298 302 305 306 307 309 310 310 311 312 313 312 314 315 316 319 320 321 323 323 326 328 328 329 329 325 318 317 322 324 326 327 328 329 329 329 329 329 330 330 330 330 330 330 329 328 328 328 326 324 323 323 324 324
303 303 306 306 304 303 302 302 302 303 303 302 301 302 303 304 303 303 303 303 303 303 303 303 303 302 301 301 300 299 297 295 294 295 295 294 294 293 293 293 293 295 296 296 300 303 305 306 307 308 309 310 311 311 311 312 313 314 316 316 319 322 322 324 327 329 328 326 323 318 318 324 326 326 327 328 329 329 329 330 329 329 329 330 330 330 329 325 323 326 328 325 324 324 323 323 324
304 302 305 311 310 305 301 301 301 302 303 301 301 303 305 304 302 302 303 303 303 303 303 303 303 302 301 301 300 299 297 295 294 295 295 294 294 293 293 293 292 294 295 295 298 302 304 306 306 307 308 309 310 311 310 310 311 312 313 313 316 319 321 323 326 328 327 322 319 318 319 324 326 326 326 326 327 329 330 329 329 328 327 327 327 327 324 319 318 323 326 325 325 324 323 323 324
305 303 305 309 310 306 302 299 301 303 302 302 303 305 306 305 302 302 303 303 303 303 303 303 303 302 301 301 300 299 297 296 295 294 294 294 294 293 293 293 292 293 294 295 297 299 302 306 306 306 307 307 309 309 308 309 311 311 311 312 314 316 318 320 324 327 326 322 320 322 324 326 326 323 322 322 322 324 327 327 325 324 323 323 322 321 319 318 320 323 325 325 325 325 324 324 324
306 307 309 308 307 307 303 299 299 301 301 301 305 308 307 306 304 302 303 303 303 303 303 303 302 302 302 301 300 299 298 296 295 294 294 293 293 293 293 293 292 292 294 295 296 297 299 304 305 305 306 306 308 307 304 306 309 310 310 311 313 315 315 317 321 325 325 324 323 324 326 326 325 322 321 322 320 320 323 324 324 324 324 323 323 322 322 323 324 325 326 325 325 325 325 324 324
307 308 310 309 307 307 304 300 298 299 301 302 304 307 307 306 303 302 302 303 303 303 303 303 302 302 302 301 299 299 298 296 295 294 293 293 293 293 293 293 292 292 293 294 295 295 296 301 304 305 305 305 306 305 303 305 307 309 310 310 312 314 314 314 318 322 323 323 323 325 325 325 324 321 321 322 320 320 322 323 323 323 324 323 323 323 324 325 325 325 325 325 325 324 324 324 323
307 308 309 307 305 306 306 303 299 298 302 304 303 305 308 305 301 302 303 303 303 302 303 303 302 303 302 301 299 298 297 295 295 294 293 294 293 293 293 293 293 292 293 293 293 294 294 297 302 304 303 303 303 303 304 305 306 308 309 310 312 313 314 313 315 319 320 321 322 323 324 323 323 321 320 321 320 320 320 320 320 320 320 320 320 320 321 322 324 324 324 324 324 323 323 323 323
306 307 308 307 305 306 306 304 301 299 303 305 304 307 310 307 302 301 303 303 303 302 302 303 302 303 303 301 300 297 297 295 295 294 294 294 293 294 294 293 293 292 293 293 293 293 293 294 298 302 303 300 299 301 303 304 306 308 308 310 312 313 313 313 315 317 318 320 321 321 322 322 322 321 320 320 319 318 318 318 319 318 318 318 319 319 319 320 322 323 324 323 322 322 322 322 321
304 304 305 307 306 306 304 303 300 298 304 307 304 306 309 309 305 301 302 302 302 303 302 302 302 303 303 302 301 299 297 296 295 295 294 294 294 294 294 293 293 293 293 293 293 293 293 292 294 298 302 299 297 298 301 302 305 307 308 310 311 311 310 311 314 315 315 318 319 319 321 321 320 320 320 320 318 316 316 316 317 317 317 317 318 318 318 318 319 321 322 323 322 322 321 320 319
302 304 306 306 304 304 303 302 299 296 305 307 302 305 309 309 305 300 302 302 302 303 302 302 302 303 303 302 301 299 298 297 296 295 295 295 295 294 294 294 293 294 293 293 293 293 293 292 292 294 298 300 298 295 297 299 302 305 308 309 309 310 310 311 313 312 312 315 317 317 319 320 320 320 320 320 318 317 317 315 315 316 317 318 319 319 319 319 319 319 320 321 321 321 321 320 319
302 305 308 306 303 303 301 300 298 296 303 305 302 308 309 306 305 300 301 302 302 302 302 302 303 302 303 303 301 300 298 297 296 296 296 296 296 295 295 294 294 294 294 293 293 293 293 292 292 292 294 298 300 296 294 296 297 300 304 305 306 307 308 310 311 310 311 313 315 316 318 318 319 319 320 320 319 319 319 318 318 318 319 319 319 319 319 319 319 319 319 319 320 320 319 319 318
304 304 306 306 302 303 303 301 299 297 303 305 303 309 310 305 303 299 300 302 301 302 301 301 302 302 303 303 301 300 299 298 297 296 297 296 296 296 296 295 295 294 294 294 293 292 293 292 292 292 291 294 298 297 294 293 294 296 298 300 302 304 305 306 307 309 310 312 313 314 316 316 317 318 318 318 318 319 318 318 319 319 319 319 319 319 319 318 318 318 318 318 318 318 318 317 316
304 303 305 305 301 303 307 305 300 299 302 302 301 309 313 308 303 300 300 301 300 301 302 302 302 302 303 302 302 301 300 300 299 297 297 297 297 296 296 297 296 295 294 294 294 293 292 292 292 292 292 291 294 295 294 293 293 293 294 295 297 300 300 300 302 304 306 308 310 311 312 313 314 315 315 316 317 317 317 317 317 317 317 317 317 317 317 317 317 316 316 317 316 316 317 316 315
305 304 303 303 300 299 303 303 300 301 302 299 302 312 316 311 308 304 301 300 300 301 302 303 303 303 302 302 301 301 301 300 300 299 298 297 297 297 297 297 297 296 296 295 294 294 293 292 292 292 292 292 291 292 292 292 292 292 292 293 294 296 296 296 297 298 299 301 303 305 306 306 308 309 310 312 312 313 313 313 313 313 313 314 315 315 316 316 315 315 314 315 315 314 314 316 315
308 304 302 300 299 299 300 299 301 310 310 300 302 313 317 314 309 305 303 303 302 300 300 302 302 302 302 301 301 301 301 301 300 299 299 298 297 297 297 296 297 297 297 296 295 294 294 293 293 292 292 292 292 291 291 291 291 291 292 293 293 293 294 295 295 295 295 295 296 297 298 298 300 301 302 303 304 304 305 305 305 305 306 308 309 310 311 312 311 310 310 310 311 311 311 313 314
308 303 300 298 298 300 301 300 304 313 311 301 300 310 317 316 310 305 305 307 305 300 299 300 301 302 301 301 301 300 300 300 300 300 299 299 298 298 297 296 296 296 296 297 296 295 294 294 293 293 292 292 292 291 291 291 291 291 291 292 293 293 293 293 293 293 293 293 293 294 294 294 295 295 296 296 297 297 297 297 297 298 298 299 300 301 301 302 301 300 301 302 304 305 305 309 312
305 301 299 299 298 300 301 303 309 309 306 304 302 305 311 315 314 308 304 306 306 303 301 300 300 302 301 301 301 300 300 300 300 300 299 299 298 298 298 297 297 296 296 296 296 296 295 295 294 293 293 292 292 292 291 291 291 291 291 291 292 292 292 292 292 292 292 292 293 293 293 294 294 294 294 294 294 294 294 294 294 294 294 294 294 295 295 295 295 294 295 295 296 297 298 301 305
303 298 297 298 297 300 301 305 311 304 306 313 307 302 308 316 316 307 303 304 304 304 303 299 299 300 300 301 300 300 300 300 300 300 300 300 299 298 298 298 298 297 297 296 296 296 296 295 295 294 293 293 292 292 292 292 291 291 291 291 291 292 291 291 291 292 292 292 293 293 293 293 293 293 293 293 293 293 293 293 293 293 293 293 294 294 293 293 293 293 293 293 293 294 294 294 296
300 295 297 299 299 301 301 305 309 306 311 317 307 301 307 316 316 307 304 305 302 303 302 298 298 300 300 300 300 300 300 300 300 300 300 299 299 299 299 298 299 298 298 297 296 296 296 296 295 295 294 293 293 292 292 292 291 291 291 291 291 291 291 291 291 292 292 292 292 292 292 292 292 292 292 292 292 292 292 292 292 293 293 293 293 293 293 293 293 293 293 293 293 293 293 293 294
297 297 300 302 301 301 301 302 304 309 318 315 304 300 303 313 316 308 304 303 301 302 302 299 298 301 301 300 300 300 300 300 300 300 300 299 299 299 299 299 298 299 299 299 298 296 296 295 296 295 295 295 294 293 292 292 292 291 291 291 291 291 291 291 291 291 291 291 292 292 292 292 292 292 292 292 292 292 292 292 292 292 292 292 292 292 293 293 293 293 293 293 293 293 293 293 293
297 300 303 305 307 305 306 310 309 313 318 312 304 300 300 309 314 307 304 304 299 298 301 301 299 300 300 300 301 300 300 300 299 299 299 299 299 299 299 299 299 299 298 299 299 298 297 296 295 295 295 295 295 294 293 292 292 292 291 291 291 291 291 291 291 291 291 291 291 291 291 291 292 292 291 291 292 291 291 291 291 291 291 292 292 292 292 292 292 292 292 292 292 293 293 293 293
299 302 305 312 319 315 314 319 316 316 313 305 302 301 302 309 311 307 306 304 298 296 299 300 298 299 300 300 301 301 300 300 299 299 299 299 298 298 298 299 299 299 299 299 299 298 298 297 296 296 295 295 295 295 294 294 293 292 292 291 291 291 291 291 291 291 291 291 291 291 291 291 291 291 291 291 291 291 291 291 291 291 291 291 292 292 292 292 292 292 292 292 292 292 292 292 292
302 301 305 314 320 319 321 318 311 313 313 303 298 301 307 310 308 307 306 301 298 297 298 299 299 300 300 300 301 300 300 300 299 299 299 299 298 298 298 298 299 299 299 299 299 298 298 298 298 297 296 295 295 295 295 295 294 293 293 292 292 292 292 291 291 291 291 291 291 291 291 291 291 291 291 291 291 291 291 291 291 291 291 291 291 291 291 291 291 291 291 291 291 292 292 292 292
300 299 302 309 309 310 317 316 311 312 310 305 301 304 310 311 306 304 302 298 298 300 299 300 300 300 300 300 300 300 300 300 300 299 299 299 298 298 298 299 299 299 299 299 298 298 298 298 298 298 297 296 296 295 295 295 295 294 294 293 293 293 292 292 292 291 291 291 291 290 290 290 290 290 290 290 290 290 290 290 290 290 290 291 291 291 291 291 291 291 291 291 291 291 291 291 292
301 299 304 307 303 305 307 304 304 304 305 309 310 306 306 307 303 299 298 298 299 300 300 300 300 300 300 301 300 300 300 300 300 299 299 299 298 298 299 299 299 299 299 299 299 299 298 298 298 298 297 297 297 296 295 295 295 295 295 295 294 294 294 293 293 292 292 292 291 291 291 290 290 290 290 290 290 290 290 290 290 290 290 290 290 290 290 290 290 290 290 290 291 291 291 291 292
304 304 305 300 296 303 305 300 297 298 306 312 309 307 308 305 303 301 301 301 300 299 300 300 300 299 301 301 300 300 300 300 300 299 299 299 298 299 299 299 299 299 299 299 299 299 299 298 298 297 297 297 297 297 296 295 295 295 295 295 295 295 295 294 294 293 293 293 292 292 291 291 290 290 290 290 290 290 290 289 289 289 289 289 290 290 290 290 290 290 290 290 290 291 291 291 292
305 307 301 296 296 301 304 307 307 306 313 314 306 307 310 308 309 307 303 303 303 302 299 298 300 300 300 301 300 300 300 300 300 300 299 299 298 299 299 299 299 299 299 299 299 299 299 299 298 298 297 297 297 297 297 297 296 295 295 295 295 295 295 295 295 294 294 294 293 293 292 292 291 291 290 290 290 290 289 289 289 289 289 289 289 289 289 289 289 289 289 290 290 290 291 291 291
300 301 296 298 304 306 304 308 311 309 311 312 307 306 305 307 313 312 306 306 308 305 300 297 299 300 300 300 300 300 300 300 301 300 300 299 299 299 299 299 299 299 299 299 299 299 299 299 299 298 297 296 296 296 296 297 297 296 296 295 295 294 294 295 295 295 295 294 294 294 293 293 292 292 292 291 291 290 290 289 289 289 289 289 289 289 289 289 289 289 289 289 290 290 291 291 291
299 300 299 301 304 304 303 302 304 308 309 309 309 311 312 310 311 312 310 310 310 308 304 299 298 300 300 300 300 299 300 300 300 300 300 300 299 299 299 299 299 299 299 299 299 299 299 299 299 299 298 297 296 296 296 296 296 296 296 296 295 295 294 294 294 294 294 294 294 294 294 294 294 293 293 292 292 291 291 291 290 290 290 289 289 289 289 289 289 289 289 289 289 290 290 291 291
303 304 304 304 301 299 301 299 298 304 309 308 307 312 317 311 306 309 311 308 306 304 301 299 299 300 300 300 300 300 300 300 300 300 300 300 300 299 299 299 299 299 299 299 299 298 298 299 299 299 298 298 297 296 296 296 296 296 296 296 296 296 295 295 294 294 294 294 294 294 294 294 294 294 293 293 293 292 292 292 292 291 291 291 290 290 290 289 289 289 289 289 289 289 290 290 291
300 302 301 302 301 302 306 305 299 299 303 305 304 308 313 307 302 305 306 302 299 298 297 297 299 300 300 300 300 300 300 300 300 300 300 300 300 299 299 299 299 299 299 299 299 299 298 298 299 299 299 298 298 298 297 296 296 296 296 295 295 295 296 295 295 295 295 294 294 294 293 294 293 293 293 293 293 293 293 293 292 292 292 291 291 291 290 290 290 290 289 289 289 289 290 290 291
Wind_Speed
13 11 9 6 4 3 3 2 2 5 4 3 3 1 3 3 3 3 7 9 3 8 14 6 10 16 10 11 15 15 15 10 5 4 4 13 25 22 27 29 22 20 17 20 6 10 7 7 6 6 7 9 8 7 8 8 10 10 10 9 8 9 9 9 9 9 8 7 8 8 6 5 4 3 2 2 1 0 2 5 7 7 6 6 6 5 6 7 8 9 10 11 11 9 7 6 4
10 10 8 4 3 3 1 4 3 2 5 3 3 1 4 5 4 4 6 5 4 14 11 3 8 16 13 14 13 11 13 10 10 12 12 22 28 21 27 29 23 21 18 19 7 10 9 10 8 7 8 8 9 9 6 7 11 10 10 10 9 10 10 11 11 10 10 9 8 8 7 5 4 3 2 1 1 2 3 4 6 8 6 6 6 5 5 6 6 8 9 9 10 10 8 6 4
7 7 6 4 2 2 3 5 4 2 5 3 1 2 4 5 5 5 8 6 10 14 3 2 4 9 6 7 8 7 7 4 15 22 19 27 29 25 28 27 25 22 20 21 11 10 12 10 11 9 10 9 8 9 9 9 10 10 12 12 10 12 12 12 12 12 11 10 10 9 8 7 5 4 3 2 3 4 4 4 5 7 7 6 5 5 4 5 6 7 8 8 9 10 9 7 5
3 4 3 4 1 5 4 4 3 3 4 2 1 3 4 4 6 7 11 9 12 17 7 2 4 8 7 6 5 6 8 4 14 26 23 28 28 28 28 26 26 22 20 20 16 9 14 11 12 12 12 11 9 9 11 11 12 11 12 13 11 13 14 13 14 14 13 12 12 10 9 8 7 6 4 5 6 5 6 6 5 6 7 6 5 4 4 4 5 6 7 7 8 9 9 8 6
3 5 4 4 3 4 4 4 2 4 3 1 2 3 5 5 6 9 14 7 9 20 14 6 3 5 9 9 6 3 11 8 14 28 27 29 27 27 27 26 26 23 20 18 20 11 14 14 13 14 13 13 11 10 11 12 14 14 13 11 11 13 15 15 15 15 14 13 13 12 11 10 8 7 6 7 7 6 7 7 7 7 7 7 6 4 4 4 3 6 6 6 7 8 8 8 6
8 8 7 7 9 7 5 4 3 5 1 2 2 4 5 7 9 12 15 4 5 18 17 11 3 3 8 8 9 7 12 14 19 28 29 31 28 27 27 26 25 22 20 17 19 18 12 16 15 14 14 14 13 12 12 11 13 15 14 11 10 11 14 16 16 15 14 14 15 14 13 11 10 8 8 8 8 8 8 9 9 9 8 8 7 5 4 2 3 5 5 5 6 6 6 6 6
10 9 8 10 11 9 5 5 4 3 1 2 2 3 5 10 13 13 13 6 4 14 16 14 4 1 6 4 6 8 12 20 24 27 28 30 29 28 28 27 24 22 21 19 17 18 15 14 17 14 14 16 15 15 14 12 11 13 15 13 12 11 12 13 14 15 15 16 16 15 14 12 11 9 9 9 9 10 10 12 12 11 10 9 8 7 4 2 3 4 4 3 3 4 4 4 4
8 7 9 9 6 6 4 4 3 1 1 2 1 2 6 11 13 10 9 9 5 9 17 15 7 1 2 2 4 4 12 22 25 26 28 29 30 29 28 28 26 24 22 21 19 16 16 12 18 17 15 17 17 16 15 13 12 12 14 15 14 13 12 13 14 17 18 18 17 15 14 13 11 10 9 9 10 10 10 13 14 12 11 11 9 7 4 4 4 4 3 1 1 2 2 3 2
8 9 9 7 4 4 4 3 3 1 1 2 3 6 10 10 10 10 6 9 9 9 18 16 9 5 1 4 5 1 13 24 25 24 27 29 30 30 29 28 27 27 24 22 21 18 15 12 16 20 19 17 18 18 16 15 14 12 13 15 15 15 15 14 14 16 19 20 20 17 15 14 13 11 9 9 9 8 8 11 14 13 12 12 11 7 6 6 6 4 3 2 1 1 2 2 2
9 10 8 5 4 5 4 2 1 1 1 2 4 9 13 10 7 12 8 7 12 9 18 14 7 11 4 3 4 1 15 25 25 23 26 28 30 31 29 28 27 27 25 23 22 21 17 13 14 21 23 20 18 19 19 17 16 15 15 15 15 16 17 16 14 16 19 20 20 17 15 15 14 12 9 9 9 7 6 8 13 14 13 13 11 9 8 9 7 5 5 3 2 2 2 2 2
7 9 8 6 4 4 2 3 2 1 2 3 6 12 13 11 5 10 11 9 13 10 19 16 6 13 6 2 1 3 16 25 26 28 31 31 30 30 29 28 26 25 25 23 21 21 20 16 14 18 22 23 21 20 22 20 19 18 17 16 16 17 17 17 15 16 17 18 17 16 16 16 16 13 11 10 9 8 6 8 11 14 14 14 12 11 12 11 8 7 5 3 3 2 3 2 2
5 4 5 5 3 3 3 4 2 1 4 4 6 12 10 13 9 7 9 10 16 11 17 19 9 8 4 4 1 6 20 25 29 32 33 33 32 30 28 27 25 24 23 23 21 20 21 18 16 16 17 21 22 21 23 23 21 21 20 19 18 18 18 17 16 17 17 18 18 18 18 18 17 14 12 11 10 9 7 8 11 13 14 13 13 14 14 12 10 8 5 3 3 3 3 3 3
7 2 5 5 1 2 3 3 1 2 5 3 5 11 9 10 10 9 6 6 16 12 12 20 12 1 4 8 4 13 25 28 31 33 34 33 32 29 26 24 24 24 22 22 21 19 19 19 17 16 16 18 20 21 24 25 25 23 22 21 20 19 19 18 18 18 18 19 20 20 20 20 18 16 14 12 11 11 9 9 11 14 13 13 14 16 14 12 11 8 6 4 4 4 4 4 4
9 6 6 3 1 2 3 2 1 2 3 4 7 10 9 8 7 10 10 6 12 13 9 18 14 3 7 12 8 22 29 29 32 32 34 33 30 28 25 23 22 22 22 22 22 19 18 18 17 16 17 17 19 21 22 26 28 26 25 25 23 22 20 18 18 18 18 18 19 20 21 21 21 19 17 15 15 14 11 10 12 15 14 14 16 16 14 13 12 9 6 5 5 6 5 4 5
11 9 7 3 2 3 3 2 2 4 2 4 10 11 7 9 7 7 13 8 6 13 11 15 17 5 7 10 11 25 28 28 32 33 35 31 28 27 25 23 21 20 20 21 22 21 20 18 17 17 19 18 18 20 21 24 27 28 28 27 26 25 21 18 17 17 17 16 16 19 22 23 23 21 19 18 17 17 14 13 14 16 16 16 17 16 15 14 13 10 7 6 5 6 6 5 5
12 9 6 4 3 3 3 3 2 4 2 4 11 12 5 7 11 6 9 11 7 12 14 15 18 11 9 11 14 22 24 28 31 33 34 31 30 27 26 25 22 21 19 21 21 21 21 20 19 18 19 20 18 18 20 23 25 28 29 28 29 28 23 19 19 18 17 17 18 19 22 24 24 23 21 19 18 18 17 16 15 16 17 17 18 18 17 16 14 11 8 6 5 6 6 6 5
10 8 6 4 3 3 2 2 2 1 3 6 9 13 7 6 13 10 5 10 11 11 15 15 15 14 15 15 17 21 23 28 31 33 34 33 34 32 31 30 27 24 21 21 22 22 21 21 21 19 19 21 21 19 18 20 22 23 27 29 29 27 23 20 21 20 18 18 19 21 23 23 23 24 23 21 18 19 19 18 17 18 18 19 19 19 19 18 16 12 9 7 6 6 6 6 5
8 5 5 4 1 2 1 1 1 2 2 5 8 10 9 6 12 14 5 9 15 12 14 15 13 15 16 16 17 21 24 28 31 33 35 36 37 36 36 35 32 29 26 24 23 24 23 22 23 22 21 21 22 22 19 18 19 21 26 26 25 24 23 21 21 21 19 18 18 21 23 24 24 23 24 24 20 19 20 19 19 19 19 20 21 21 21 20 17 13 10 8 8 6 6 5 4
11 4 5 3 2 1 2 2 1 1 1 3 4 7 8 6 10 13 6 9 16 13 15 17 17 19 18 18 21 23 27 31 32 34 36 37 37 37 37 36 34 31 29 27 25 24 24 23 23 23 24 23 23 23 21 18 19 22 26 25 23 24 24 23 22 21 18 17 16 18 20 23 24 24 24 25 23 22 22 21 21 21 21 21 22 22 23 23 19 14 10 9 8 6 5 4 2
9 5 5 1 5 4 2 3 3 3 3 1 3 5 5 6 9 10 6 8 12 10 13 16 19 23 22 22 25 27 30 32 32 32 34 35 35 36 37 37 36 33 30 27 25 23 24 24 23 23 25 25 24 25 23 21 20 21 24 25 25 27 26 25 24 22 19 17 16 16 17 19 23 25 25 25 25 24 23 22 22 22 22 22 24 25 25 24 20 14 11 10 8 7 5 3 1
6 5 6 5 7 4 3 4 4 4 4 2 2 3 3 6 7 7 6 4 6 8 11 13 17 21 22 25 27 28 30 31 29 29 30 31 32 33 34 35 35 34 31 27 24 21 22 24 24 24 25 26 25 25 25 23 21 20 23 24 26 28 28 27 27 24 20 17 16 16 16 18 20 23 24 24 25 25 23 22 22 21 21 20 23 27 27 24 19 15 12 10 8 7 5 2 2
8 5 7 8 6 4 3 4 4 5 5 3 2 3 3 5 5 5 5 2 2 8 11 12 14 17 21 24 26 27 29 30 27 27 28 29 30 30 31 31 31 31 31 29 26 22 22 22 23 24 25 26 25 24 24 24 22 21 22 22 24 25 27 28 28 25 20 17 17 17 16 17 19 20 22 23 24 24 22 21 20 19 20 19 21 25 26 22 19 16 13 10 9 8 6 3 3
7 4 5 6 4 5 4 2 2 3 6 5 3 3 4 5 4 5 5 1 2 8 10 12 15 16 19 22 24 26 29 27 25 26 28 28 29 29 30 30 29 29 29 29 27 24 22 20 21 22 25 26 25 24 23 23 22 21 22 21 21 22 25 26 26 25 21 18 17 16 16 17 19 19 20 22 22 22 21 20 19 18 19 20 21 22 23 21 19 17 13 11 10 9 7 4 4
11 4 3 6 6 6 3 1 1 3 5 6 5 5 6 5 3 5 7 3 3 8 10 13 15 16 18 20 22 25 26 24 24 25 26 27 28 28 29 31 31 30 29 28 27 25 23 21 20 21 24 26 26 25 23 22 20 20 21 20 20 20 23 23 24 24 21 20 20 17 16 17 18 18 20 21 20 20 20 18 18 19 20 20 20 21 20 19 19 17 14 13 13 11 8 5 5
12 4 3 6 5 5 4 4 4 5 5 6 8 9 8 4 4 6 7 4 4 8 10 12 15 17 18 20 22 24 24 23 23 24 24 26 27 29 29 32 33 32 32 31 29 27 24 22 22 22 23 24 26 26 23 21 19 18 19 19 19 20 21 24 24 23 22 22 22 17 15 18 19 19 20 20 20 20 19 19 19 19 20 20 19 21 21 20 20 18 16 16 15 11 8 6 6
7 6 5 6 6 7 8 10 10 6 6 9 11 13 8 3 4 5 6 5 5 9 10 13 16 18 19 20 22 23 23 23 23 24 24 25 27 30 30 32 35 35 35 34 33 30 26 24 23 24 23 23 26 26 23 20 18 18 18 19 20 20 20 24 25 24 22 21 21 16 13 17 19 20 20 20 21 20 20 20 20 20 20 20 20 21 21 21 21 19 17 18 16 11 8 7 5
8 12 11 10 10 10 11 15 17 8 6 13 10 10 7 2 2 3 6 6 6 9 10 14 17 18 19 19 20 21 22 22 23 24 24 25 27 30 31 32 34 35 36 36 35 33 29 25 23 24 24 23 24 25 22 18 18 18 18 18 19 19 18 23 25 24 22 21 19 13 12 17 20 20 20 21 23 23 21 21 21 21 20 20 22 22 21 22 22 22 20 18 15 11 10 8 5
11 11 9 8 9 13 15 15 20 10 4 16 11 5 6 3 2 4 9 8 7 10 10 14 17 17 17 17 18 19 20 21 22 23 24 26 27 28 30 31 33 34 36 37 36 34 30 27 23 23 25 23 21 23 20 15 16 17 16 16 17 18 17 22 25 23 22 22 18 13 14 17 19 20 20 19 21 23 22 21 21 21 20 21 23 24 23 20 18 21 21 18 14 11 9 7 6
7 6 4 6 5 10 15 14 20 10 3 17 12 3 6 4 2 7 14 10 8 9 10 14 16 15 16 16 17 17 19 20 20 23 23 25 26 27 28 28 30 32 33 36 36 33 30 28 25 24 24 21 19 20 18 12 14 16 14 13 15 17 17 20 24 24 22 20 17 15 17 17 18 20 21 20 19 22 24 22 20 19 18 20 23 25 22 14 8 12 15 14 11 10 9 9 9
2 4 4 4 5 6 11 14 21 10 4 19 10 2 6 6 3 8 15 11 7 9 10 13 15 15 16 16 16 16 18 20 20 22 23 24 25 26 27 27 28 30 31 34 35 34 31 29 27 25 23 19 17 17 14 11 12 14 12 11 13 16 18 19 22 23 21 18 16 16 18 18 16 14 13 13 13 18 23 20 16 14 13 14 18 20 16 10 7 10 13 14 14 15 15 13 12
1 3 3 3 3 5 8 12 19 11 8 20 9 3 5 7 5 11 14 9 5 9 10 12 14 14 16 16 16 16 17 19 20 22 23 24 25 25 26 27 27 29 30 32 34 34 31 29 29 29 25 20 15 14 12 12 12 13 11 8 11 12 15 18 21 23 21 18 19 18 18 18 12 4 2 2 4 5 9 12 10 9 9 10 12 13 11 10 11 14 15 15 17 18 17 15 14
3 3 3 4 3 4 7 7 15 10 8 17 10 2 4 6 7 13 12 7 4 7 9 11 13 14 16 17 15 16 17 18 19 21 22 23 24 25 26 26 27 28 29 30 32 33 32 30 30 31 28 24 17 14 13 15 13 12 11 8 7 8 10 14 21 24 24 21 20 19 18 17 11 3 4 3 2 8 7 2 6 5 6 6 7 9 9 11 13 16 17 16 17 18 17 16 14
4 4 1 3 4 4 6 3 11 13 7 10 9 1 2 5 10 14 8 6 4 6 8 10 12 14 15 16 15 16 17 18 19 20 22 22 23 24 25 26 26 27 28 29 30 31 33 32 30 30 30 27 18 14 15 15 15 15 11 7 4 4 5 8 17 23 23 21 20 18 17 15 9 3 4 5 4 3 2 5 5 2 3 3 1 2 3 5 7 10 14 15 15 13 12 12 11
4 4 2 2 2 2 5 3 10 17 7 5 7 1 2 7 11 12 6 4 3 5 8 9 11 13 14 15 14 16 17 18 20 21 22 22 23 24 24 25 25 26 27 28 29 29 31 33 32 30 29 28 24 21 20 17 19 19 13 8 5 1 3 5 12 19 21 19 19 19 16 12 8 5 5 6 8 4 2 7 8 7 7 7 7 7 6 5 4 2 2 5 4 3 4 5 7
3 3 2 3 3 2 3 3 7 15 7 4 8 3 4 9 10 12 6 3 3 4 8 9 11 12 13 14 13 15 16 17 19 20 22 22 23 23 23 24 24 25 25 26 27 26 27 29 31 32 29 27 30 30 27 23 23 22 18 13 7 2 5 7 8 13 20 20 17 17 14 9 7 5 5 6 6 1 3 5 7 8 7 7 8 8 8 8 6 3 1 1 0 2 2 4 5
4 2 1 1 3 3 4 4 4 10 5 5 7 3 6 8 9 11 7 3 4 6 8 9 11 12 13 13 12 14 15 16 18 19 20 22 22 23 23 23 23 24 24 25 25 25 26 27 28 31 31 30 31 33 31 29 28 26 25 20 14 10 9 11 8 8 16 19 17 16 13 10 8 6 5 5 2 2 5 5 7 8 6 6 8 7 7 7 6 5 3 3 4 6 5 5 4
3 2 2 3 2 3 4 4 4 8 4 2 5 4 6 6 7 10 8 5 6 7 8 10 12 12 12 13 12 13 14 15 17 17 18 20 21 22 22 22 23 23 24 25 25 24 25 26 27 28 30 32 32 33 32 31 30 28 27 26 23 21 19 18 15 12 15 18 18 18 15 12 10 7 6 4 2 3 4 5 7 7 7 7 7 6 6 6 6 6 6 5 6 7 6 5 5
3 2 3 2 1 3 4 2 5 9 3 2 6 5 5 6 6 8 8 6 7 8 10 12 13 12 12 12 12 13 13 13 15 16 17 17 19 20 21 22 22 24 24 25 25 25 24 25 26 26 27 29 31 32 31 30 30 29 28 28 27 27 26 25 23 22 22 22 22 21 18 14 10 8 6 4 2 3 2 2 5 5 4 4 5 5 5 5 5 5 5 5 5 5 5 6 7
1 1 2 1 3 4 4 2 4 7 3 3 7 5 5 6 6 7 7 7 8 10 11 12 13 11 11 12 13 14 15 14 15 16 16 17 18 19 20 21 22 23 24 24 24 24 24 23 25 25 24 25 27 29 29 29 29 28 27 27 27 27 27 26 26 26 26 26 26 24 21 18 15 13 11 9 6 4 3 2 3 1 1 0 1 2 2 1 1 1 1 1 2 3 4 6 9
1 1 2 1 3 3 2 3 6 6 2 2 4 2 4 6 5 5 6 8 9 10 10 10 10 10 11 12 13 14 16 16 16 16 17 17 17 18 19 21 22 23 23 23 24 24 24 24 23 24 24 23 23 24 25 27 27 26 25 25 24 24 24 24 24 24 25 25 24 23 22 20 18 17 16 15 12 9 7 5 5 6 6 5 4 3 3 4 4 3 3 2 2 0 3 6 9
2 1 4 1 4 2 4 4 7 5 0 2 3 3 4 5 5 5 7 10 11 13 13 13 12 10 11 13 14 15 16 17 17 17 17 17 17 17 18 19 20 21 22 23 24 24 24 24 22 22 23 23 22 22 23 24 25 24 23 22 21 21 20 21 23 24 24 24 22 21 21 20 18 17 17 16 14 13 12 11 11 10 10 9 9 8 8 8 7 6 5 4 3 2 1 5 9
4 2 4 2 3 5 6 5 6 3 2 4 5 4 4 4 4 5 6 8 9 12 15 15 16 14 13 14 15 17 18 18 19 18 18 18 18 17 17 17 18 19 21 22 23 23 23 23 22 21 21 21 21 22 22 22 22 22 21 20 21 21 21 21 24 25 25 24 23 23 22 21 19 18 17 16 15 14 14 14 13 12 12 11 11 10 10 10 9 9 8 7 4 4 4 3 8
3 1 3 1 3 4 3 3 1 3 1 3 4 4 2 4 4 5 5 5 7 9 14 16 17 15 14 14 15 17 18 19 21 20 19 18 17 17 16 16 16 17 18 20 21 22 22 22 22 21 20 20 20 20 21 21 21 21 21 21 21 22 23 24 24 25 24 24 23 23 22 22 21 20 19 19 18 17 17 17 16 15 15 14 14 13 13 12 12 11 11 10 8 9 8 2 6
2 1 1 2 2 3 0 2 2 1 1 3 5 4 2 3 4 6 5 5 6 8 10 15 17 15 14 14 15 16 17 19 21 21 21 19 17 17 16 15 15 15 16 17 18 20 20 21 22 22 21 19 18 18 19 19 20 21 21 21 21 22 23 23 23 23 23 22 21 21 21 21 20 20 20 19 19 19 18 18 17 16 16 16 15 14 15 15 14 15 14 14 13 12 11 7 6
3 1 1 2 1 3 2 3 2 1 2 3 6 4 2 3 5 5 4 4 6 7 7 11 15 15 15 16 15 16 16 18 20 21 22 21 18 16 15 15 15 15 15 15 16 17 18 20 21 21 21 19 18 17 17 18 19 20 20 20 20 21 21 22 21 21 21 20 19 20 20 19 19 19 19 18 18 18 18 17 16 15 15 15 14 14 15 15 14 15 14 14 13 13 13 11 10
3 3 4 3 4 3 3 3 1 2 4 2 5 3 2 4 5 4 4 4 5 6 6 10 14 15 16 17 16 16 17 18 19 20 21 22 19 15 14 14 14 14 14 14 14 15 16 17 18 19 20 19 18 17 17 16 17 18 18 19 19 20 20 20 19 18 19 19 18 19 19 19 18 18 18 17 17 17 16 16 15 14 15 14 14 14 13 13 12 12 12 12 12 12 12 11 10
1 5 4 3 3 4 3 2 2 4 3 4 5 1 2 1 4 3 1 2 3 4 5 9 13 16 17 17 17 17 19 19 18 19 22 23 20 14 12 12 12 13 14 14 14 14 14 14 15 17 18 19 18 18 17 16 16 16 16 17 18 18 18 18 17 17 18 17 16 17 17 17 17 17 17 16 15 15 15 14 14 14 14 13 12 12 11 11 11 10 10 10 9 9 9 9 8
2 3 3 2 2 3 3 5 4 4 3 5 4 1 2 1 4 4 3 4 4 5 5 6 11 16 17 17 18 17 19 19 17 18 23 25 22 16 13 11 11 12 13 13 13 13 13 13 13 14 15 17 17 17 16 16 15 15 15 16 16 16 17 17 17 17 17 16 15 15 15 14 14 14 14 14 13 13 13 13 13 13 12 11 11 10 10 10 10 10 9 8 8 8 8 8 7
4 3 4 3 2 4 2 3 3 0 4 2 2 2 0 3 6 4 5 6 6 7 7 7 10 13 15 17 18 18 18 17 15 16 21 25 23 18 15 12 10 10 11 12 12 12 12 12 12 12 13 14 15 16 16 15 15 14 14 14 14 15 15 15 16 16 16 15 15 14 13 13 12 12 12 11 11 10 10 10 10 10 10 9 10 10 10 10 10 9 9 9 9 9 8 8 7
6 4 4 3 3 4 2 3 2 2 5 2 2 2 2 3 4 4 5 6 5 5 6 7 8 10 12 17 18 17 17 16 14 15 19 22 22 18 15 13 12 11 11 11 11 12 12 12 12 12 11 11 12 13 14 14 14 13 13 13 13 13 13 14 14 14 14 14 13 13 13 12 11 11 10 9 9 8 8 8 7 7 7 7 7 8 8 8 8 9 9 9 10 9 9 10 10
3 1 3 3 3 2 2 3 1 3 5 5 3 1 1 2 2 4 6 7 4 3 4 3 5 8 13 17 17 16 18 16 14 15 17 19 19 16 14 13 12 12 11 11 11 12 12 12 12 11 11 10 10 10 11 12 12 12 12 11 11 11 11 12 12 12 12 12 12 12 12 11 11 10 10 9 8 8 7 6 6 6 6 5 5 5 6 6 6 7 7 8 8 9 9 10 10
1 2 3 2 2 3 1 2 3 1 3 4 3 2 4 3 3 4 5 5 4 3 2 1 6 13 18 18 16 16 17 16 15 16 17 17 15 12 11 11 11 11 11 11 12 13 13 13 12 11 10 9 9 9 8 9 10 10 10 10 10 10 10 10 10 10 10 10 11 11 11 11 10 10 9 9 8 8 7 6 6 6 5 5 5 5 5 5 6 6 6 6 7 7 7 7 8
1 3 2 1 3 5 4 1 0 4 2 4 2 3 5 3 3 4 5 3 4 4 3 3 7 15 21 20 16 15 15 15 15 15 16 15 12 9 9 10 11 11 12 12 13 14 13 13 13 12 11 10 9 9 8 7 7 7 8 8 8 8 8 9 9 9 9 9 9 9 9 9 9 9 8 8 8 7 7 7 7 6 6 6 5 5 5 5 6 6 6 6 6 5 6 5 5
1 2 0 1 2 4 4 1 3 5 1 4 3 3 5 3 2 4 5 4 6 6 7 8 9 13 19 21 17 14 13 14 14 14 15 14 10 8 7 9 10 11 12 13 14 15 14 13 13 13 12 11 11 10 9 8 7 7 7 7 7 7 7 7 7 7 8 8 7 7 7 7 8 8 8 8 8 8 7 7 7 6 6 6 6 6 7 6 6 6 6 6 6 5 5 5 5
5 5 3 2 2 2 2 2 2 3 3 5 5 4 3 2 3 3 4 5 6 7 7 9 11 11 17 21 18 14 13 13 14 15 16 13 10 8 7 8 10 11 12 13 14 15 15 14 13 13 12 12 12 12 11 10 9 9 9 9 8 8 7 7 6 6 6 7 7 7 7 7 7 7 7 7 7 7 7 7 7 7 7 7 7 8 8 8 7 7 7 7 6 6 6 5 4
5 4 1 2 3 2 1 1 2 0 1 3 5 5 3 5 5 4 6 7 6 6 5 8 11 12 17 21 19 16 13 13 13 15 16 14 11 8 8 10 11 11 13 14 14 15 15 15 14 13 12 12 12 12 12 12 11 11 11 11 11 10 9 9 8 7 6 6 6 6 6 7 7 7 7 7 7 7 7 7 7 7 7 8 8 9 9 9 8 8 8 7 7 7 6 5 5
2 3 3 3 2 1 1 1 1 3 2 1 2 5 6 6 4 5 7 7 6 7 7 10 12 13 18 20 18 16 14 13 13 14 15 15 12 10 9 11 12 12 13 14 14 15 15 15 15 14 13 12 11 11 11 11 12 13 13 13 13 13 13 13 13 11 10 9 8 7 8 8 7 7 7 7 7 7 7 7 7 7 7 8 8 9 9 9 9 9 9 9 9 8 8 7 6
1 1 2 1 1 2 2 2 3 1 2 3 2 3 8 6 3 5 7 6 6 6 8 10 12 15 19 19 16 15 14 13 14 14 14 15 14 12 12 12 12 13 14 15 14 14 15 15 15 15 14 13 12 11 11 10 10 11 12 13 13 14 15 16 16 16 15 13 12 11 11 11 9 9 10 9 8 8 8 8 8 7 7 8 8 8 9 10 10 10 10 10 10 10 10 10 10
Wind_Direction
260 261 265 280 297 275 299 346 54 29 65 80 18 53 7 351 313 338 347 352 8 328 342 341 24 50 76 92 101 87 69 72 58 344 304 329 339 346 352 352 354 351 348 354 336 203 215 212 219 221 246 266 266 260 227 229 238 234 237 225 206 203 203 210 217 217 218 205 196 196 192 176 164 172 144 123 134 183 191 195 184 182 183 161 138 109 81 65 54 49 46 43 42 44 42 34 24
259 254 256 257 298 249 228 35 86 15 61 74 8 52 319 330 350 357 333 346 343 318 332 15 62 70 88 96 94 80 64 62 33 353 334 339 342 348 351 353 353 351 349 352 340 210 219 220 225 215 231 255 262 279 266 246 247 241 244 240 226 222 214 213 219 216 217 217 211 203 199 204 198 194 186 161 282 282 255 236 198 184 178 161 144 118 89 70 59 50 46 42 40 43 42 30 15
253 245 245 223 289 79 114 38 78 81 77 99 14 338 325 350 343 319 308 313 341 339 359 125 63 54 81 87 56 67 63 48 12 357 352 353 347 347 349 351 353 353 348 348 337 228 220 236 235 218 221 236 246 262 271 267 259 251 246 243 231 229 225 220 225 221 214 217 219 214 208 208 209 214 233 261 281 272 245 240 223 194 170 160 153 129 101 77 63 52 47 44 41 42 42 33 15
222 209 193 179 142 57 64 41 80 95 87 107 108 319 340 342 312 304 318 326 358 15 50 93 66 41 59 62 50 83 41 24 5 1 356 358 352 345 347 348 352 353 346 342 336 253 221 245 244 227 218 226 234 241 253 254 255 251 247 247 238 234 232 225 227 226 216 216 220 217 216 213 215 223 246 273 277 268 243 229 223 207 182 173 165 143 116 91 64 55 53 48 45 43 43 37 22
131 153 154 167 121 54 69 70 59 71 87 113 110 307 329 313 309 313 324 329 12 24 38 45 85 43 60 54 55 96 20 14 0 4 356 357 357 346 347 348 350 351 345 333 334 308 236 239 245 236 224 226 226 228 241 246 251 248 246 246 240 239 240 234 228 227 220 218 222 221 223 223 224 234 251 269 272 263 247 234 222 212 197 188 178 153 128 106 70 66 63 55 54 47 45 39 29
106 118 123 117 84 66 78 67 56 67 119 147 102 298 321 318 321 323 332 352 27 26 34 33 55 58 71 63 67 82 26 16 360 3 358 355 357 350 348 348 349 347 345 333 329 330 279 239 242 242 229 233 228 224 228 235 250 253 252 247 243 241 243 242 229 224 224 223 225 224 227 230 233 242 254 265 272 265 247 235 226 216 203 200 193 165 145 124 87 81 74 61 57 53 50 42 35
110 105 89 93 68 54 77 69 83 75 59 108 110 282 322 333 337 336 350 19 16 22 25 26 31 94 80 81 85 82 26 12 2 360 357 355 354 352 350 346 348 344 345 341 328 333 320 253 240 244 234 236 235 229 225 224 234 248 255 249 248 246 241 241 227 223 226 224 226 227 228 229 234 239 248 259 269 267 246 226 218 216 205 204 201 177 173 182 132 105 87 71 57 54 52 43 40
116 102 77 87 52 40 81 71 85 97 61 61 50 308 338 348 357 358 5 17 2 3 11 19 27 84 79 50 114 85 11 4 360 357 355 354 353 352 350 346 344 344 344 344 335 333 331 280 245 245 245 241 238 235 232 229 223 229 243 246 247 245 240 234 228 228 225 224 227 228 229 230 233 236 242 255 263 263 245 219 211 211 201 198 202 193 202 198 158 130 119 103 59 53 42 36 33
101 91 80 84 71 63 74 63 67 82 53 7 8 359 356 4 24 22 9 18 11 352 4 12 31 41 312 32 90 105 356 355 353 354 355 353 351 350 348 346 342 343 343 341 337 333 331 304 258 249 252 248 243 238 236 236 230 225 229 240 244 242 240 237 236 233 224 226 230 223 225 232 232 235 240 253 260 258 245 218 210 210 205 204 209 214 216 195 173 163 175 196 238 340 357 4 360
81 75 91 84 78 79 58 56 61 77 18 342 9 8 8 14 38 29 20 16 10 1 6 10 35 23 1 59 84 43 353 347 346 351 354 353 351 348 344 345 342 339 339 338 335 331 329 315 278 257 255 254 249 239 239 239 236 233 226 229 236 240 240 237 236 234 229 228 228 218 221 230 230 234 237 249 256 251 240 219 210 210 215 217 220 225 212 193 188 200 201 210 234 283 326 340 340
68 58 92 83 69 91 102 117 98 134 336 338 12 14 21 26 41 22 23 21 10 16 14 17 21 3 13 80 63 360 349 343 349 354 353 352 350 348 342 340 340 337 335 335 334 329 326 321 298 271 261 256 251 239 237 238 235 235 232 227 227 234 238 238 233 233 237 235 233 227 229 232 229 232 232 241 246 240 232 218 211 209 215 221 226 221 203 195 200 209 205 225 252 274 318 334 331
77 30 75 75 68 102 138 128 85 308 334 356 10 7 19 35 46 11 15 20 9 20 20 18 1 344 7 11 354 339 346 350 356 354 351 349 348 347 341 337 336 336 333 331 331 327 325 325 314 291 276 262 254 241 236 237 235 234 234 233 228 228 231 236 234 231 235 238 242 239 238 235 229 229 231 240 239 233 223 217 214 209 213 217 219 210 199 201 206 208 211 244 262 272 311 324 316
94 76 82 79 50 93 94 100 28 350 3 2 346 360 18 36 45 22 16 23 15 17 14 13 2 33 28 350 342 344 349 355 353 350 348 348 347 345 341 336 334 335 332 328 326 325 322 324 321 301 287 273 259 246 237 235 235 234 234 235 233 229 227 232 236 235 235 237 241 239 238 236 232 230 232 242 244 233 216 213 215 212 213 210 208 202 199 208 208 208 223 248 255 261 297 317 311
99 93 88 104 44 83 92 75 18 64 29 344 344 1 29 38 34 29 30 27 22 19 7 13 13 99 13 353 346 347 351 351 346 345 346 346 347 345 343 340 335 333 332 329 325 324 322 320 320 307 294 281 269 259 248 240 236 236 237 237 236 234 229 231 237 240 241 241 239 235 234 233 232 232 233 240 246 237 217 210 214 214 214 208 207 204 203 211 214 215 225 244 252 254 281 307 308
95 89 84 106 46 42 83 72 59 86 79 346 0 1 30 39 24 26 33 31 18 22 26 24 25 52 356 349 335 342 346 344 342 341 342 345 346 348 350 347 342 337 333 330 326 324 325 322 317 308 303 295 283 273 267 258 245 238 240 240 239 239 235 232 238 241 243 244 239 233 231 231 231 233 236 236 238 236 221 210 212 214 214 212 210 210 210 216 221 221 221 237 251 253 271 297 309
77 83 79 78 47 35 58 43 52 76 4 334 6 11 23 30 26 24 28 30 19 24 34 29 29 35 358 345 332 338 342 339 340 340 342 345 348 353 354 353 351 345 338 332 327 324 326 327 322 310 302 301 298 285 272 270 258 243 240 242 242 240 237 239 246 245 243 243 240 234 230 230 232 234 236 231 230 231 222 214 215 215 216 216 214 213 215 220 225 221 219 229 245 252 266 290 311
62 71 68 66 53 46 40 14 53 105 309 332 7 20 18 5 22 24 11 22 21 24 30 26 24 18 358 349 341 340 339 338 339 342 346 349 351 354 355 357 356 352 347 340 333 328 327 329 328 320 306 298 300 297 280 273 266 248 240 245 245 239 235 243 250 249 249 249 244 238 231 229 231 233 233 230 229 228 223 219 219 218 219 218 217 217 218 223 226 222 220 228 244 253 264 286 309
53 70 66 78 57 42 113 211 155 170 281 336 6 21 22 5 5 13 9 8 15 19 20 17 12 5 357 351 347 344 340 340 342 347 351 352 352 353 355 357 357 356 353 348 341 334 330 331 333 329 318 305 300 303 296 279 268 252 244 247 246 239 236 242 250 250 250 250 246 241 235 231 230 230 231 232 230 227 225 224 224 223 222 221 220 219 220 223 222 220 219 227 241 244 258 281 310
57 95 78 93 177 143 157 170 164 127 337 322 14 25 28 19 353 8 12 348 5 12 3 2 358 358 359 354 350 347 345 344 347 351 354 354 354 353 353 354 356 356 354 352 347 340 334 331 334 332 326 315 304 303 303 289 272 257 248 247 242 239 239 241 246 249 247 247 246 241 239 236 232 228 228 231 231 228 227 228 228 228 228 228 227 222 220 222 218 214 215 228 237 233 251 273 318
47 78 82 165 189 156 146 113 100 77 26 351 27 20 27 22 359 9 4 333 357 7 354 351 347 350 354 353 351 349 347 346 349 353 354 355 355 353 353 353 354 355 354 353 348 343 336 330 330 332 330 324 311 303 300 295 285 267 253 248 242 239 240 242 244 245 245 248 251 246 241 240 235 228 226 230 230 229 227 228 230 232 233 233 232 224 218 219 217 211 211 225 230 223 241 254 24
42 61 111 166 174 141 127 111 74 49 32 33 25 15 14 8 359 4 9 350 347 351 351 344 338 343 348 349 350 347 345 346 350 352 353 355 356 354 353 352 352 351 350 350 347 342 337 331 328 329 330 327 319 307 300 296 293 280 261 250 245 239 235 240 241 241 244 250 258 254 245 241 235 227 226 229 229 228 227 229 232 235 241 241 235 222 210 209 212 211 211 219 219 215 230 222 74
70 60 122 140 156 141 136 130 71 42 35 35 29 29 354 343 344 345 7 70 313 333 345 343 342 344 346 348 347 343 343 347 352 354 356 358 359 357 354 352 349 347 346 346 346 343 338 333 328 327 327 326 322 313 304 299 296 286 271 253 246 239 231 237 237 235 242 251 256 251 245 238 230 224 224 225 225 227 227 229 232 238 245 249 247 227 207 203 208 212 212 213 213 213 222 198 93
95 70 110 116 121 120 132 134 73 28 31 35 20 5 330 324 332 328 327 291 296 331 344 348 349 347 345 345 343 343 345 349 353 357 1 1 360 359 357 356 352 348 346 343 342 340 337 334 329 327 324 324 322 315 308 302 296 289 279 258 247 242 236 235 228 229 239 248 248 245 241 229 223 224 222 221 222 226 229 231 234 241 244 248 251 232 208 202 207 210 212 211 211 214 214 183 107
95 100 94 90 91 95 93 43 6 331 2 13 358 336 322 325 323 323 327 326 322 332 345 351 349 345 345 344 343 345 347 350 356 360 3 1 0 0 0 2 359 353 349 344 340 336 334 331 328 326 321 320 320 315 309 303 295 287 280 264 249 243 239 229 219 225 236 241 244 244 236 221 218 223 222 223 225 227 229 232 235 240 245 247 245 227 211 209 211 210 209 208 210 211 201 167 119
64 101 110 89 79 64 39 7 342 326 334 340 342 334 326 320 295 307 334 345 323 331 345 350 348 345 346 346 345 346 347 352 357 2 4 2 3 3 4 5 4 359 354 349 343 336 332 329 326 327 322 318 317 314 310 303 295 283 272 261 247 238 228 215 213 222 230 236 239 238 228 218 217 221 224 227 229 228 228 232 234 238 243 241 233 224 216 216 217 214 211 212 210 204 188 156 129
44 95 101 83 60 47 36 23 9 350 353 350 340 342 350 349 307 316 349 344 315 330 344 347 346 346 347 347 346 345 348 353 357 1 2 2 5 7 7 7 6 3 358 354 348 341 334 329 327 327 325 321 317 314 313 307 299 283 264 256 245 237 220 205 210 219 226 233 233 235 228 219 221 224 228 231 232 229 226 229 231 233 236 230 225 226 221 219 221 219 217 214 204 194 183 165 149
100 97 90 79 68 48 34 27 18 13 18 6 347 341 357 31 360 336 342 334 318 330 339 345 344 344 347 346 345 346 348 353 357 360 360 2 6 7 8 8 7 5 1 357 352 346 338 332 330 330 329 327 322 317 315 311 303 285 263 256 245 238 219 200 206 215 223 228 231 243 234 223 229 233 236 235 231 228 225 228 228 227 229 228 226 224 225 225 223 224 221 207 191 184 184 179 181
109 103 89 58 66 49 32 25 11 11 27 5 355 339 354 15 31 356 345 329 314 329 331 339 342 341 345 344 345 346 348 354 358 359 0 2 3 4 5 5 5 4 3 1 357 352 345 339 336 335 332 330 330 322 316 321 312 288 264 258 247 234 215 195 200 208 213 218 227 235 222 226 238 240 248 246 231 227 226 223 225 227 224 228 227 219 224 229 221 222 217 196 183 186 192 196 204
92 90 96 1 30 41 24 18 4 7 27 356 355 1 351 330 347 10 0 341 309 323 324 333 340 340 343 345 347 346 348 355 358 359 1 2 2 2 3 3 2 3 5 5 2 359 354 350 347 342 335 333 338 325 317 339 330 297 272 263 249 228 208 191 193 200 201 207 222 221 210 227 248 249 255 257 238 227 227 222 224 228 222 225 224 216 222 228 218 221 208 189 188 194 206 221 223
61 39 86 7 9 14 10 13 3 13 22 352 356 75 333 294 306 2 355 347 317 319 323 331 338 341 345 350 351 348 349 353 358 0 2 3 3 1 1 2 1 2 6 8 8 6 2 0 1 354 342 339 342 326 323 358 349 312 294 277 255 225 202 186 184 196 199 201 211 207 205 221 242 252 252 254 240 220 218 216 217 216 210 213 213 215 224 223 211 217 208 199 203 205 210 215 219
52 359 40 28 31 343 352 15 13 20 353 353 17 121 326 290 328 358 346 348 329 318 324 330 338 345 350 355 354 350 350 353 357 359 1 3 3 2 2 2 3 3 6 11 12 11 9 5 8 8 355 350 342 321 339 13 3 333 318 300 265 232 204 181 172 186 191 191 198 197 205 213 212 215 167 219 299 281 225 203 192 191 195 201 204 214 227 221 212 214 213 207 205 207 209 211 219
31 25 4 360 31 321 328 19 29 22 320 357 39 116 312 284 330 356 349 356 345 320 325 330 341 350 354 358 356 351 352 355 358 359 3 5 4 4 3 3 4 4 7 13 14 13 13 11 13 14 8 5 343 322 360 18 8 350 338 331 282 243 216 184 166 175 179 181 194 198 207 206 190 152 94 119 312 316 307 177 154 170 179 190 208 216 219 220 218 216 219 217 213 212 211 214 219
15 51 55 328 6 340 333 5 25 13 326 3 39 124 281 285 328 354 359 5 353 318 325 332 343 352 357 359 355 353 355 359 2 3 5 7 6 5 6 6 4 4 7 12 14 12 14 17 19 18 16 15 357 347 16 21 16 5 347 349 316 256 220 187 161 166 171 178 192 193 194 192 178 149 97 103 129 228 310 65 77 59 70 66 17 283 240 231 228 224 219 209 207 211 212 216 215
345 26 55 311 327 319 337 316 355 8 13 6 10 116 231 281 320 354 6 4 348 311 323 332 343 354 360 359 356 356 357 0 4 5 6 7 7 7 8 8 6 5 7 11 15 15 13 17 23 25 22 19 16 21 26 25 26 16 359 4 352 304 154 149 149 154 157 171 185 176 169 173 174 168 146 121 106 120 70 50 33 11 8 6 5 0 358 348 346 336 228 187 183 203 212 224 224
286 347 12 321 319 281 313 297 343 4 19 14 6 13 303 299 324 355 4 356 333 309 319 328 340 352 359 0 359 357 358 2 5 6 6 6 7 8 10 11 9 7 8 10 15 18 16 17 22 27 27 22 25 30 30 30 32 26 19 18 9 34 115 109 124 141 139 150 161 147 140 148 159 160 162 145 109 103 313 352 346 346 345 339 340 334 337 340 344 360 17 88 283 246 227 231 237
214 216 164 260 313 291 280 269 334 1 359 5 9 335 299 305 321 344 354 340 321 311 315 325 336 349 357 1 0 358 0 2 6 9 6 6 8 10 11 12 12 9 9 12 15 19 19 19 20 24 26 22 27 33 31 33 35 33 33 31 34 52 78 91 99 111 117 126 125 114 110 110 117 122 142 147 117 266 275 280 287 310 318 315 319 310 306 308 308 304 286 266 252 250 248 246 245
176 149 166 205 262 296 291 268 326 356 358 337 347 310 288 292 297 326 344 334 321 316 316 327 337 348 355 359 2 2 3 2 5 9 8 8 10 13 14 13 13 12 12 13 16 20 20 21 21 23 23 20 27 34 31 33 36 37 37 35 40 49 56 69 81 81 86 97 97 94 92 91 96 99 108 119 141 207 223 222 239 272 293 296 299 292 282 272 269 275 278 274 260 252 247 239 226
147 152 213 223 284 297 295 249 320 350 14 312 352 355 309 305 298 317 341 331 325 327 319 327 336 347 355 357 2 4 6 6 5 7 10 12 13 17 19 16 14 14 15 14 14 21 22 22 22 24 25 21 25 33 32 32 36 39 37 34 36 43 48 55 61 64 67 73 76 78 78 78 85 88 88 94 127 163 175 225 246 264 284 289 285 275 266 259 256 259 265 269 263 256 242 224 207
146 258 217 6 339 312 306 284 325 351 29 331 357 12 311 309 297 305 343 337 330 334 323 326 330 339 355 358 1 3 5 7 6 6 7 12 15 19 22 21 19 17 16 16 14 20 24 24 24 25 28 27 26 30 32 33 35 39 40 38 37 39 44 49 54 58 62 67 69 73 77 78 82 86 89 89 90 91 65 334 285 310 58 324 280 271 256 234 229 240 257 265 271 265 235 207 198
84 22 72 21 333 354 310 301 335 346 32 317 338 1 301 323 320 310 351 353 355 3 355 354 346 340 353 358 358 358 0 3 6 6 4 8 13 16 22 23 23 20 18 18 17 19 23 25 26 25 26 31 33 34 34 34 35 38 42 45 44 43 45 48 53 56 59 64 67 72 76 77 79 82 83 84 86 89 89 89 85 78 76 80 79 70 73 81 81 83 92 105 91 230 216 201 194
334 66 103 96 323 314 241 282 337 335 323 325 6 33 315 335 351 321 344 1 11 20 23 26 18 5 4 8 9 6 2 360 2 6 3 5 9 11 16 21 22 21 19 20 19 19 22 24 26 27 27 28 32 37 38 37 37 38 41 48 53 57 59 57 57 57 57 59 62 64 67 69 71 74 77 81 84 86 86 84 76 71 69 70 69 67 69 70 70 69 71 77 75 78 170 209 199
321 266 138 126 305 278 265 307 346 12 33 357 37 56 299 313 344 309 331 355 353 8 19 23 21 21 19 16 17 16 10 4 2 4 3 3 6 7 9 14 18 19 19 21 21 20 21 22 25 29 30 28 29 33 36 36 38 40 41 45 50 56 60 61 59 57 57 58 60 61 64 65 65 67 70 73 76 76 75 74 70 68 68 69 67 67 68 67 66 65 63 62 71 79 68 211 198
348 334 117 77 299 260 282 325 22 79 36 334 43 105 255 313 329 299 319 331 323 353 9 10 14 18 16 14 14 13 9 7 6 4 3 1 2 6 6 7 10 13 15 18 21 21 21 22 24 27 30 30 30 31 33 34 36 39 40 40 44 49 52 55 56 56 56 56 58 60 62 63 63 64 64 66 68 69 69 69 67 66 66 67 67 67 69 68 66 65 63 59 66 72 60 74 170
318 8 54 322 279 205 198 53 89 86 285 331 19 88 147 292 283 279 307 332 334 352 353 353 2 7 8 10 12 10 6 5 5 2 1 358 356 0 5 6 5 7 9 11 15 20 21 22 23 25 27 28 30 32 33 32 33 35 37 37 40 45 48 50 52 53 54 54 57 59 60 61 62 61 61 62 63 64 65 65 63 63 64 66 66 67 69 69 68 67 66 63 64 68 65 67 98
276 192 61 296 150 141 112 81 81 8 39 348 336 32 78 275 275 296 338 15 347 338 328 327 342 354 1 5 5 4 2 2 2 360 358 356 352 352 358 5 6 5 5 4 7 12 17 22 22 24 26 26 27 30 32 33 32 32 34 34 37 42 44 44 45 48 50 50 53 55 56 58 60 61 61 61 62 62 62 63 63 63 65 66 65 65 65 65 65 65 65 65 64 67 69 68 72
286 120 81 56 70 66 71 74 96 48 46 315 295 4 60 274 286 314 2 25 321 309 300 304 331 352 358 360 359 356 356 357 357 358 357 354 351 348 349 358 3 5 6 3 1 3 9 16 20 22 24 25 25 26 29 32 32 31 31 32 33 37 42 42 41 43 45 45 47 50 51 53 54 56 58 59 61 62 61 62 63 63 65 65 65 65 67 67 66 64 62 61 59 61 65 63 63
20 96 58 47 41 32 50 31 79 68 360 255 245 341 91 295 292 267 296 327 267 274 289 305 338 355 355 357 358 355 354 354 352 354 356 354 351 347 345 349 356 0 4 5 2 359 1 6 13 18 20 23 24 24 27 28 30 30 30 31 31 32 37 39 38 42 45 44 45 47 47 48 49 50 51 51 54 57 57 58 59 60 62 64 66 67 68 67 65 63 61 58 55 55 58 53 51
98 103 73 88 355 9 34 350 33 70 308 255 226 284 99 189 275 254 254 272 243 228 250 288 327 344 351 356 355 351 350 349 349 353 355 355 353 349 346 345 348 352 355 360 2 0 359 359 3 8 13 18 21 22 24 26 28 29 28 29 30 30 33 34 35 38 42 44 46 49 48 48 49 50 49 45 46 49 50 50 50 50 52 54 55 55 56 57 57 55 52 50 48 47 48 45 39
26 43 56 74 357 7 31 332 2 148 271 243 194 299 341 218 250 260 266 279 261 235 242 274 311 333 349 355 353 349 347 345 345 351 355 355 354 351 349 347 345 347 347 349 354 358 359 358 357 360 3 7 13 18 21 23 26 28 29 29 29 31 32 33 35 36 38 41 44 48 50 51 52 52 52 48 47 49 46 45 43 41 39 39 39 38 38 38 38 36 33 30 29 29 31 29 22
4 17 41 66 65 36 335 294 340 293 282 272 230 277 309 281 268 228 236 275 276 254 268 295 320 338 348 354 355 352 352 352 346 347 354 355 353 352 354 355 351 348 346 344 344 347 351 353 354 355 356 357 360 6 12 18 22 24 27 29 30 32 33 35 37 37 38 39 41 43 45 47 49 50 52 51 50 52 50 46 43 39 36 32 30 27 23 23 20 16 15 12 9 10 11 8 6
340 177 101 88 116 89 293 264 260 292 293 296 296 274 207 280 276 210 240 281 280 270 295 319 351 356 356 357 357 355 357 359 351 346 349 353 354 354 358 1 358 354 351 349 343 339 341 342 344 347 350 350 349 350 358 6 12 18 22 26 30 32 34 37 39 40 40 39 39 40 40 40 41 41 42 42 41 43 44 44 42 38 34 28 23 19 14 11 9 5 3 360 357 360 359 356 356
293 158 86 59 156 127 103 190 187 227 316 299 295 243 212 235 266 264 292 290 243 236 285 343 4 4 5 358 353 356 359 358 353 347 346 349 353 356 359 0 360 360 359 358 353 345 342 339 336 335 335 338 338 334 338 347 354 2 10 17 23 27 31 34 39 41 42 41 40 38 36 35 34 34 33 31 29 29 27 26 27 25 21 17 11 7 5 2 1 359 356 356 357 357 357 354 353
336 55 37 241 164 120 105 193 334 61 29 284 301 292 289 323 310 308 347 326 248 247 265 297 341 358 2 353 346 352 355 353 352 348 346 347 349 352 357 357 357 359 1 2 1 355 348 341 336 332 326 320 318 319 321 322 326 335 345 356 5 12 19 24 29 35 37 40 40 38 35 32 30 28 25 23 21 19 17 13 10 6 1 359 357 354 355 355 355 356 356 359 2 3 4 2 1
46 59 173 189 95 82 98 87 352 35 9 284 326 302 296 342 325 307 335 305 273 270 269 286 312 342 350 344 341 344 347 350 352 354 351 347 344 342 346 350 348 351 352 353 355 355 352 345 338 337 333 321 308 305 307 305 301 303 309 320 333 342 352 3 12 19 23 26 29 29 29 26 25 23 19 17 15 12 11 6 359 355 350 345 344 342 345 347 349 353 356 357 359 2 4 4 8
78 120 157 109 75 12 29 63 18 13 328 298 313 304 270 232 233 282 277 247 260 279 280 285 293 318 336 336 337 338 340 346 351 359 357 348 341 330 331 341 339 338 340 339 342 347 350 348 341 338 339 334 321 307 299 296 293 290 289 291 296 305 315 323 334 347 356 0 5 9 10 10 13 14 12 12 10 5 2 357 351 346 341 338 335 335 336 338 341 343 343 345 346 348 351 353 357
61 91 21 24 109 142 4 72 133 139 309 300 319 330 284 232 218 211 232 236 245 268 283 281 279 299 322 329 335 336 335 338 345 357 357 349 340 323 318 329 332 332 330 328 331 336 342 347 344 339 335 335 334 324 309 299 293 287 285 283 283 284 287 291 295 302 312 321 329 338 339 343 351 353 353 355 354 353 349 344 342 338 335 333 329 329 329 329 330 330 329 330 330 329 330 330 330
9 34 17 5 32 65 66 30 109 126 139 212 316 316 278 250 206 192 226 244 238 241 258 269 277 299 318 329 337 336 333 331 333 344 351 348 339 321 310 315 322 328 327 323 323 326 333 340 341 340 334 328 329 330 325 315 303 297 293 288 284 280 278 278 278 278 281 286 293 304 309 310 318 322 321 325 327 327 327 326 327 327 326 323 320 320 319 317 319 319 318 316 314 313 311 307 304
177 114 123 128 33 58 80 329 318 94 138 173 163 287 276 264 210 205 229 246 254 262 262 265 285 308 320 332 340 337 334 330 324 328 337 341 338 323 312 309 311 320 325 323 318 319 325 330 334 336 334 328 322 319 321 321 315 311 307 300 291 285 282 279 277 275 273 273 275 280 285 287 290 294 294 296 298 300 301 300 303 305 305 307 308 307 305 304 305 306 304 304 302 301 299 296 293